Year,Month,Day,Hour,Minute,Value (Times are PST for temperature in C)
2008,04,21,00,00,1.00
2008,04,21,00,01,1.00
2008,04,21,00,02,1.00
2008,04,21,00,03,1.00
2008,04,21,00,04,0.90
2008,04,21,00,05,0.90
2008,04,21,00,06,0.90
2008,04,21,00,07,0.90
2008,04,21,00,08,0.80
2008,04,21,00,09,0.80
2008,04,21,00,10,0.80
2008,04,21,00,11,0.80
2008,04,21,00,12,0.80
2008,04,21,00,13,0.80
2008,04,21,00,14,0.80
2008,04,21,00,15,0.80
2008,04,21,00,16,0.80
2008,04,21,00,17,0.80
2008,04,21,00,18,0.80
2008,04,21,00,19,0.80
2008,04,21,00,20,0.80
2008,04,21,00,21,0.70
2008,04,21,00,22,0.70
2008,04,21,00,23,0.70
2008,04,21,00,24,0.70
2008,04,21,00,25,0.70
2008,04,21,00,26,0.70
2008,04,21,00,27,0.70
2008,04,21,00,28,0.70
2008,04,21,00,29,0.70
2008,04,21,00,30,0.70
2008,04,21,00,31,0.70
2008,04,21,00,32,0.70
2008,04,21,00,33,0.70
2008,04,21,00,34,0.70
2008,04,21,00,35,0.70
2008,04,21,00,36,0.70
2008,04,21,00,37,0.80
2008,04,21,00,38,0.80
2008,04,21,00,39,0.80
2008,04,21,00,40,0.80
2008,04,21,00,41,0.80
2008,04,21,00,42,0.80
2008,04,21,00,43,0.80
2008,04,21,00,44,0.80
2008,04,21,00,45,0.80
2008,04,21,00,46,0.80
2008,04,21,00,47,0.80
2008,04,21,00,48,0.80
2008,04,21,00,49,0.80
2008,04,21,00,50,0.80
2008,04,21,00,51,0.80
2008,04,21,00,52,0.80
2008,04,21,00,53,0.80
2008,04,21,00,54,0.80
2008,04,21,00,55,0.80
2008,04,21,00,56,0.80
2008,04,21,00,57,0.90
2008,04,21,00,58,0.90
2008,04,21,00,59,0.90
2008,04,21,01,00,1.00
2008,04,21,01,01,1.00
2008,04,21,01,02,1.00
2008,04,21,01,03,1.10
2008,04,21,01,04,1.20
2008,04,21,01,05,1.30
2008,04,21,01,06,1.40
2008,04,21,01,07,1.60
2008,04,21,01,08,2.00
2008,04,21,01,09,2.20
2008,04,21,01,10,2.40
2008,04,21,01,11,2.50
2008,04,21,01,12,2.70
2008,04,21,01,13,2.80
2008,04,21,01,14,2.90
2008,04,21,01,15,2.90
2008,04,21,01,16,3.10
2008,04,21,01,17,3.10
2008,04,21,01,18,3.10
2008,04,21,01,19,3.10
2008,04,21,01,20,3.10
2008,04,21,01,21,3.20
2008,04,21,01,22,3.20
2008,04,21,01,23,3.20
2008,04,21,01,24,3.20
2008,04,21,01,25,3.20
2008,04,21,01,26,3.20
2008,04,21,01,27,3.20
2008,04,21,01,28,3.20
2008,04,21,01,29,3.20
2008,04,21,01,30,3.20
2008,04,21,01,31,3.10
2008,04,21,01,32,3.10
2008,04,21,01,33,3.10
2008,04,21,01,34,3.10
2008,04,21,01,35,2.90
2008,04,21,01,36,2.90
2008,04,21,01,37,2.90
2008,04,21,01,38,2.80
2008,04,21,01,39,2.80
2008,04,21,01,40,2.70
2008,04,21,01,41,2.70
2008,04,21,01,42,2.70
2008,04,21,01,43,2.70
2008,04,21,01,44,2.60
2008,04,21,01,45,2.60
2008,04,21,01,46,2.50
2008,04,21,01,47,2.50
2008,04,21,01,48,2.50
2008,04,21,01,49,2.50
2008,04,21,01,50,2.40
2008,04,21,01,51,2.40
2008,04,21,01,52,2.40
2008,04,21,01,53,2.40
2008,04,21,01,54,2.40
2008,04,21,01,55,2.40
2008,04,21,01,56,2.40
2008,04,21,01,57,2.40
2008,04,21,01,58,2.40
2008,04,21,01,59,2.40
2008,04,21,02,00,2.40
2008,04,21,02,01,2.40
2008,04,21,02,02,2.40
2008,04,21,02,03,2.40
2008,04,21,02,04,2.40
2008,04,21,02,05,2.40
2008,04,21,02,06,2.40
2008,04,21,02,07,2.40
2008,04,21,02,08,2.40
2008,04,21,02,09,2.40
2008,04,21,02,10,2.40
2008,04,21,02,11,2.40
2008,04,21,02,12,2.40
2008,04,21,02,13,2.40
2008,04,21,02,14,2.40
2008,04,21,02,15,2.40
2008,04,21,02,16,2.40
2008,04,21,02,17,2.50
2008,04,21,02,18,2.50
2008,04,21,02,19,2.50
2008,04,21,02,20,2.50
2008,04,21,02,21,2.50
2008,04,21,02,22,2.60
2008,04,21,02,23,2.60
2008,04,21,02,24,2.60
2008,04,21,02,25,2.60
2008,04,21,02,26,2.70
2008,04,21,02,27,2.70
2008,04,21,02,28,2.70
2008,04,21,02,29,2.70
2008,04,21,02,30,2.70
2008,04,21,02,31,2.70
2008,04,21,02,32,2.70
2008,04,21,02,33,2.70
2008,04,21,02,34,2.70
2008,04,21,02,35,2.70
2008,04,21,02,36,2.70
2008,04,21,02,37,2.70
2008,04,21,02,38,2.70
2008,04,21,02,39,2.70
2008,04,21,02,40,2.70
2008,04,21,02,41,2.70
2008,04,21,02,42,2.70
2008,04,21,02,43,2.70
2008,04,21,02,44,2.70
2008,04,21,02,45,2.70
2008,04,21,02,46,2.70
2008,04,21,02,47,2.70
2008,04,21,02,48,2.70
2008,04,21,02,49,2.70
2008,04,21,02,50,2.70
2008,04,21,02,51,2.70
2008,04,21,02,52,2.70
2008,04,21,02,53,2.70
2008,04,21,02,54,2.60
2008,04,21,02,55,2.60
2008,04,21,02,56,2.60
2008,04,21,02,57,2.60
2008,04,21,02,58,2.50
2008,04,21,02,59,2.50
2008,04,21,03,00,2.50
2008,04,21,03,01,2.50
2008,04,21,03,02,2.40
2008,04,21,03,03,2.40
2008,04,21,03,04,2.40
2008,04,21,03,05,2.40
2008,04,21,03,06,2.30
2008,04,21,03,07,2.30
2008,04,21,03,08,2.30
2008,04,21,03,09,2.20
2008,04,21,03,10,2.20
2008,04,21,03,11,2.20
2008,04,21,03,12,2.20
2008,04,21,03,13,2.20
2008,04,21,03,14,2.20
2008,04,21,03,15,2.20
2008,04,21,03,16,2.20
2008,04,21,03,17,2.20
2008,04,21,03,18,2.20
2008,04,21,03,19,2.10
2008,04,21,03,20,2.10
2008,04,21,03,21,2.10
2008,04,21,03,22,2.10
2008,04,21,03,23,2.10
2008,04,21,03,24,2.10
2008,04,21,03,25,2.10
2008,04,21,03,26,2.10
2008,04,21,03,27,2.00
2008,04,21,03,28,2.00
2008,04,21,03,29,2.00
2008,04,21,03,30,2.00
2008,04,21,03,31,2.00
2008,04,21,03,32,2.00
2008,04,21,03,33,2.00
2008,04,21,03,34,2.00
2008,04,21,03,35,2.00
2008,04,21,03,36,2.00
2008,04,21,03,37,2.00
2008,04,21,03,38,2.10
2008,04,21,03,39,2.10
2008,04,21,03,40,2.10
2008,04,21,03,41,2.10
2008,04,21,03,42,2.10
2008,04,21,03,43,2.10
2008,04,21,03,44,2.10
2008,04,21,03,45,2.10
2008,04,21,03,46,2.10
2008,04,21,03,47,2.10
2008,04,21,03,48,2.10
2008,04,21,03,49,2.10
2008,04,21,03,50,2.10
2008,04,21,03,51,2.10
2008,04,21,03,52,2.10
2008,04,21,03,53,2.10
2008,04,21,03,54,2.10
2008,04,21,03,55,2.20
2008,04,21,03,56,2.20
2008,04,21,03,57,2.20
2008,04,21,03,58,2.20
2008,04,21,03,59,2.20
2008,04,21,04,00,2.20
2008,04,21,04,01,2.20
2008,04,21,04,02,2.20
2008,04,21,04,03,2.20
2008,04,21,04,04,2.20
2008,04,21,04,05,2.20
2008,04,21,04,06,2.20
2008,04,21,04,07,2.20
2008,04,21,04,08,2.20
2008,04,21,04,09,2.20
2008,04,21,04,10,2.20
2008,04,21,04,11,2.20
2008,04,21,04,12,2.20
2008,04,21,04,13,2.20
2008,04,21,04,14,2.20
2008,04,21,04,15,2.20
2008,04,21,04,16,2.20
2008,04,21,04,17,2.20
2008,04,21,04,18,2.20
2008,04,21,04,19,2.20
2008,04,21,04,20,2.10
2008,04,21,04,21,2.10
2008,04,21,04,22,2.10
2008,04,21,04,23,2.10
2008,04,21,04,24,2.10
2008,04,21,04,25,2.10
2008,04,21,04,26,2.10
2008,04,21,04,27,2.10
2008,04,21,04,28,2.00
2008,04,21,04,29,2.00
2008,04,21,04,30,2.00
2008,04,21,04,31,2.00
2008,04,21,04,32,2.00
2008,04,21,04,33,2.00
2008,04,21,04,34,2.00
2008,04,21,04,35,2.00
2008,04,21,04,36,2.00
2008,04,21,04,37,2.00
2008,04,21,04,38,2.00
2008,04,21,04,39,2.00
2008,04,21,04,40,2.00
2008,04,21,04,41,2.00
2008,04,21,04,42,2.00
2008,04,21,04,43,2.00
2008,04,21,04,44,2.00
2008,04,21,04,45,2.00
2008,04,21,04,46,2.00
2008,04,21,04,47,2.00
2008,04,21,04,48,2.00
2008,04,21,04,49,2.00
2008,04,21,04,50,2.00
2008,04,21,04,51,2.00
2008,04,21,04,52,2.00
2008,04,21,04,53,2.00
2008,04,21,04,54,2.00
2008,04,21,04,55,2.00
2008,04,21,04,56,2.00
2008,04,21,04,57,2.00
2008,04,21,04,58,2.00
2008,04,21,04,59,2.00
2008,04,21,05,00,2.00
2008,04,21,05,01,2.00
2008,04,21,05,02,2.00
2008,04,21,05,03,2.00
2008,04,21,05,04,2.00
2008,04,21,05,05,2.10
2008,04,21,05,06,2.10
2008,04,21,05,07,2.10
2008,04,21,05,08,2.10
2008,04,21,05,09,2.10
2008,04,21,05,10,2.10
2008,04,21,05,11,2.10
2008,04,21,05,12,2.10
2008,04,21,05,13,2.10
2008,04,21,05,14,2.10
2008,04,21,05,15,2.10
2008,04,21,05,16,2.10
2008,04,21,05,17,2.10
2008,04,21,05,18,2.10
2008,04,21,05,19,2.10
2008,04,21,05,20,2.10
2008,04,21,05,21,2.20
2008,04,21,05,22,2.20
2008,04,21,05,23,2.20
2008,04,21,05,24,2.20
2008,04,21,05,25,2.20
2008,04,21,05,26,2.20
2008,04,21,05,27,2.20
2008,04,21,05,28,2.20
2008,04,21,05,29,2.20
2008,04,21,05,30,2.20
2008,04,21,05,31,2.20
2008,04,21,05,32,2.20
2008,04,21,05,33,2.20
2008,04,21,05,34,2.20
2008,04,21,05,35,2.20
2008,04,21,05,36,2.20
2008,04,21,05,37,2.20
2008,04,21,05,38,2.20
2008,04,21,05,39,2.20
2008,04,21,05,40,2.20
2008,04,21,05,41,2.20
2008,04,21,05,42,2.20
2008,04,21,05,43,2.20
2008,04,21,05,44,2.30
2008,04,21,05,45,2.30
2008,04,21,05,46,2.30
2008,04,21,05,47,2.30
2008,04,21,05,48,2.30
2008,04,21,05,49,2.30
2008,04,21,05,50,2.30
2008,04,21,05,51,2.30
2008,04,21,05,52,2.30
2008,04,21,05,53,2.30
2008,04,21,05,54,2.30
2008,04,21,05,55,2.30
2008,04,21,05,56,2.30
2008,04,21,05,57,2.30
2008,04,21,05,58,2.30
2008,04,21,05,59,2.30
2008,04,21,06,00,2.30
2008,04,21,06,01,2.30
2008,04,21,06,02,2.30
2008,04,21,06,03,2.30
2008,04,21,06,04,2.20
2008,04,21,06,05,2.20
2008,04,21,06,06,2.20
2008,04,21,06,07,2.20
2008,04,21,06,08,2.20
2008,04,21,06,09,2.20
2008,04,21,06,10,2.20
2008,04,21,06,11,2.20
2008,04,21,06,12,2.20
2008,04,21,06,13,2.20
2008,04,21,06,14,2.20
2008,04,21,06,15,2.20
2008,04,21,06,16,2.20
2008,04,21,06,17,2.20
2008,04,21,06,18,2.20
2008,04,21,06,19,2.20
2008,04,21,06,20,2.20
2008,04,21,06,21,2.20
2008,04,21,06,22,2.20
2008,04,21,06,23,2.10
2008,04,21,06,24,2.10
2008,04,21,06,25,2.10
2008,04,21,06,26,2.10
2008,04,21,06,27,2.00
2008,04,21,06,28,2.00
2008,04,21,06,29,2.00
2008,04,21,06,30,2.00
2008,04,21,06,31,2.00
2008,04,21,06,32,2.00
2008,04,21,06,33,1.90
2008,04,21,06,34,1.90
2008,04,21,06,35,1.90
2008,04,21,06,36,1.90
2008,04,21,06,37,1.90
2008,04,21,06,38,2.00
2008,04,21,06,39,2.00
2008,04,21,06,40,2.00
2008,04,21,06,41,2.00
2008,04,21,06,42,2.00
2008,04,21,06,43,2.00
2008,04,21,06,44,2.00
2008,04,21,06,45,2.00
2008,04,21,06,46,2.00
2008,04,21,06,47,2.10
2008,04,21,06,48,2.10
2008,04,21,06,49,2.10
2008,04,21,06,50,2.10
2008,04,21,06,51,2.10
2008,04,21,06,52,2.10
2008,04,21,06,53,2.20
2008,04,21,06,54,2.20
2008,04,21,06,55,2.20
2008,04,21,06,56,2.20
2008,04,21,06,57,2.20
2008,04,21,06,58,2.20
2008,04,21,06,59,2.20
2008,04,21,07,00,2.20
2008,04,21,07,01,2.20
2008,04,21,07,02,2.20
2008,04,21,07,03,2.20
2008,04,21,07,04,2.20
2008,04,21,07,05,2.20
2008,04,21,07,06,2.20
2008,04,21,07,07,2.20
2008,04,21,07,08,2.20
2008,04,21,07,09,2.20
2008,04,21,07,10,2.20
2008,04,21,07,11,2.20
2008,04,21,07,12,2.20
2008,04,21,07,13,2.20
2008,04,21,07,14,2.20
2008,04,21,07,15,2.20
2008,04,21,07,16,2.20
2008,04,21,07,17,2.20
2008,04,21,07,18,2.20
2008,04,21,07,19,2.20
2008,04,21,07,20,2.20
2008,04,21,07,21,2.20
2008,04,21,07,22,2.30
2008,04,21,07,23,2.30
2008,04,21,07,24,2.40
2008,04,21,07,25,2.40
2008,04,21,07,26,2.50
2008,04,21,07,27,2.60
2008,04,21,07,28,2.70
2008,04,21,07,29,2.70
2008,04,21,07,30,2.70
2008,04,21,07,31,2.80
2008,04,21,07,32,2.80
2008,04,21,07,33,2.80
2008,04,21,07,34,2.80
2008,04,21,07,35,2.80
2008,04,21,07,36,2.80
2008,04,21,07,37,2.80
2008,04,21,07,38,2.90
2008,04,21,07,39,2.90
2008,04,21,07,40,2.90
2008,04,21,07,41,2.90
2008,04,21,07,42,2.90
2008,04,21,07,43,3.00
2008,04,21,07,44,3.10
2008,04,21,07,45,3.10
2008,04,21,07,46,3.20
2008,04,21,07,47,3.20
2008,04,21,07,48,3.20
2008,04,21,07,49,3.30
2008,04,21,07,50,3.30
2008,04,21,07,51,3.30
2008,04,21,07,52,3.30
2008,04,21,07,53,3.30
2008,04,21,07,54,3.30
2008,04,21,07,55,3.30
2008,04,21,07,56,3.30
2008,04,21,07,57,3.30
2008,04,21,07,58,3.40
2008,04,21,07,59,3.40
2008,04,21,08,00,3.50
2008,04,21,08,01,3.60
2008,04,21,08,02,3.70
2008,04,21,08,03,3.80
2008,04,21,08,04,3.90
2008,04,21,08,05,4.00
2008,04,21,08,06,4.00
2008,04,21,08,07,4.00
2008,04,21,08,08,4.10
2008,04,21,08,09,4.20
2008,04,21,08,10,4.20
2008,04,21,08,11,4.20
2008,04,21,08,12,4.20
2008,04,21,08,13,4.10
2008,04,21,08,14,4.10
2008,04,21,08,15,4.00
2008,04,21,08,16,4.00
2008,04,21,08,17,3.90
2008,04,21,08,18,3.90
2008,04,21,08,19,3.90
2008,04,21,08,20,3.80
2008,04,21,08,21,3.80
2008,04,21,08,22,3.90
2008,04,21,08,23,3.90
2008,04,21,08,24,4.00
2008,04,21,08,25,4.00
2008,04,21,08,26,4.00
2008,04,21,08,27,4.10
2008,04,21,08,28,4.10
2008,04,21,08,29,4.20
2008,04,21,08,30,4.20
2008,04,21,08,31,4.20
2008,04,21,08,32,4.20
2008,04,21,08,33,4.20
2008,04,21,08,34,4.20
2008,04,21,08,35,4.20
2008,04,21,08,36,4.20
2008,04,21,08,37,4.20
2008,04,21,08,38,4.20
2008,04,21,08,39,4.30
2008,04,21,08,40,4.40
2008,04,21,08,41,4.50
2008,04,21,08,42,4.50
2008,04,21,08,43,4.60
2008,04,21,08,44,4.80
2008,04,21,08,45,4.90
2008,04,21,08,46,5.10
2008,04,21,08,47,5.20
2008,04,21,08,48,5.20
2008,04,21,08,49,5.30
2008,04,21,08,50,5.30
2008,04,21,08,51,5.30
2008,04,21,08,52,5.30
2008,04,21,08,53,5.30
2008,04,21,08,54,5.30
2008,04,21,08,55,5.30
2008,04,21,08,56,5.30
2008,04,21,08,57,5.30
2008,04,21,08,58,5.30
2008,04,21,08,59,5.40
2008,04,21,09,00,5.40
2008,04,21,09,01,5.40
2008,04,21,09,02,5.50
2008,04,21,09,03,5.50
2008,04,21,09,04,5.40
2008,04,21,09,05,5.30
2008,04,21,09,06,5.30
2008,04,21,09,07,5.30
2008,04,21,09,08,5.30
2008,04,21,09,09,5.20
2008,04,21,09,10,5.10
2008,04,21,09,11,5.10
2008,04,21,09,12,5.10
2008,04,21,09,13,5.10
2008,04,21,09,14,5.10
2008,04,21,09,15,5.00
2008,04,21,09,16,4.90
2008,04,21,09,17,4.90
2008,04,21,09,18,4.90
2008,04,21,09,19,5.10
2008,04,21,09,20,5.10
2008,04,21,09,21,5.10
2008,04,21,09,22,5.10
2008,04,21,09,23,5.10
2008,04,21,09,24,5.10
2008,04,21,09,25,5.10
2008,04,21,09,26,5.10
2008,04,21,09,27,5.10
2008,04,21,09,28,5.10
2008,04,21,09,29,5.10
2008,04,21,09,30,5.10
2008,04,21,09,31,5.10
2008,04,21,09,32,5.10
2008,04,21,09,33,5.10
2008,04,21,09,34,5.10
2008,04,21,09,35,5.10
2008,04,21,09,36,5.10
2008,04,21,09,37,5.10
2008,04,21,09,38,5.20
2008,04,21,09,39,5.30
2008,04,21,09,40,5.30
2008,04,21,09,41,5.30
2008,04,21,09,42,5.30
2008,04,21,09,43,5.30
2008,04,21,09,44,5.30
2008,04,21,09,45,5.30
2008,04,21,09,46,5.30
2008,04,21,09,47,5.30
2008,04,21,09,48,5.30
2008,04,21,09,49,5.30
2008,04,21,09,50,5.40
2008,04,21,09,51,5.50
2008,04,21,09,52,5.60
2008,04,21,09,53,5.60
2008,04,21,09,54,5.60
2008,04,21,09,55,5.70
2008,04,21,09,56,5.70
2008,04,21,09,57,5.70
2008,04,21,09,58,5.70
2008,04,21,09,59,5.70
2008,04,21,10,00,5.70
2008,04,21,10,01,5.60
2008,04,21,10,02,5.50
2008,04,21,10,03,5.40
2008,04,21,10,04,5.40
2008,04,21,10,05,5.30
2008,04,21,10,06,5.30
2008,04,21,10,07,5.40
2008,04,21,10,08,5.40
2008,04,21,10,09,5.60
2008,04,21,10,10,5.70
2008,04,21,10,11,5.80
2008,04,21,10,12,6.00
2008,04,21,10,13,6.00
2008,04,21,10,14,6.10
2008,04,21,10,15,6.20
2008,04,21,10,16,6.20
2008,04,21,10,17,6.20
2008,04,21,10,18,6.30
2008,04,21,10,19,6.30
2008,04,21,10,20,6.40
2008,04,21,10,21,6.40
2008,04,21,10,22,6.40
2008,04,21,10,23,6.40
2008,04,21,10,24,6.40
2008,04,21,10,25,6.40
2008,04,21,10,26,6.60
2008,04,21,10,27,6.50
2008,04,21,10,28,6.40
2008,04,21,10,29,6.40
2008,04,21,10,30,6.30
2008,04,21,10,31,6.20
2008,04,21,10,32,6.10
2008,04,21,10,33,6.00
2008,04,21,10,34,6.00
2008,04,21,10,35,5.90
2008,04,21,10,36,5.90
2008,04,21,10,37,5.80
2008,04,21,10,38,5.80
2008,04,21,10,39,5.80
2008,04,21,10,40,5.70
2008,04,21,10,41,5.70
2008,04,21,10,42,5.70
2008,04,21,10,43,5.70
2008,04,21,10,44,5.70
2008,04,21,10,45,5.70
2008,04,21,10,46,5.60
2008,04,21,10,47,5.60
2008,04,21,10,48,5.60
2008,04,21,10,49,5.60
2008,04,21,10,50,5.60
2008,04,21,10,51,5.60
2008,04,21,10,52,5.60
2008,04,21,10,53,5.60
2008,04,21,10,54,5.50
2008,04,21,10,55,5.40
2008,04,21,10,56,5.40
2008,04,21,10,57,5.40
2008,04,21,10,58,5.40
2008,04,21,10,59,5.40
2008,04,21,11,00,5.50
2008,04,21,11,01,5.50
2008,04,21,11,02,5.50
2008,04,21,11,03,5.40
2008,04,21,11,04,5.30
2008,04,21,11,05,5.30
2008,04,21,11,06,5.30
2008,04,21,11,07,5.40
2008,04,21,11,08,5.40
2008,04,21,11,09,5.30
2008,04,21,11,10,5.40
2008,04,21,11,11,5.40
2008,04,21,11,12,5.40
2008,04,21,11,13,5.40
2008,04,21,11,14,5.40
2008,04,21,11,15,5.50
2008,04,21,11,16,5.50
2008,04,21,11,17,5.50
2008,04,21,11,18,5.50
2008,04,21,11,19,5.50
2008,04,21,11,20,5.50
2008,04,21,11,21,5.60
2008,04,21,11,22,5.60
2008,04,21,11,23,5.50
2008,04,21,11,24,5.50
2008,04,21,11,25,5.50
2008,04,21,11,26,5.50
2008,04,21,11,27,5.50
2008,04,21,11,28,5.40
2008,04,21,11,29,5.50
2008,04,21,11,30,5.50
2008,04,21,11,31,5.50
2008,04,21,11,32,5.50
2008,04,21,11,33,5.50
2008,04,21,11,34,5.40
2008,04,21,11,35,5.40
2008,04,21,11,36,5.30
2008,04,21,11,37,5.30
2008,04,21,11,38,5.30
2008,04,21,11,39,5.30
2008,04,21,11,40,5.30
2008,04,21,11,41,5.30
2008,04,21,11,42,5.20
2008,04,21,11,43,5.20
2008,04,21,11,44,5.20
2008,04,21,11,45,5.20
2008,04,21,11,46,5.20
2008,04,21,11,47,5.20
2008,04,21,11,48,5.20
2008,04,21,11,49,5.20
2008,04,21,11,50,5.10
2008,04,21,11,51,5.20
2008,04,21,11,52,5.30
2008,04,21,11,53,5.50
2008,04,21,11,54,5.50
2008,04,21,11,55,5.60
2008,04,21,11,56,5.70
2008,04,21,11,57,5.70
2008,04,21,11,58,5.80
2008,04,21,11,59,6.00
2008,04,21,12,00,6.10
2008,04,21,12,01,6.20
2008,04,21,12,02,6.20
2008,04,21,12,03,6.20
2008,04,21,12,04,6.20
2008,04,21,12,05,6.30
2008,04,21,12,06,6.30
2008,04,21,12,07,6.30
2008,04,21,12,08,6.30
2008,04,21,12,09,6.40
2008,04,21,12,10,6.40
2008,04,21,12,11,6.40
2008,04,21,12,12,6.40
2008,04,21,12,13,6.40
2008,04,21,12,14,6.40
2008,04,21,12,15,6.30
2008,04,21,12,16,6.30
2008,04,21,12,17,6.30
2008,04,21,12,18,6.40
2008,04,21,12,19,6.50
2008,04,21,12,20,6.50
2008,04,21,12,21,6.40
2008,04,21,12,22,6.30
2008,04,21,12,23,6.20
2008,04,21,12,24,6.10
2008,04,21,12,25,6.00
2008,04,21,12,26,5.90
2008,04,21,12,27,5.80
2008,04,21,12,28,5.80
2008,04,21,12,29,5.80
2008,04,21,12,30,5.80
2008,04,21,12,31,5.80
2008,04,21,12,32,5.80
2008,04,21,12,33,5.80
2008,04,21,12,34,5.80
2008,04,21,12,35,5.80
2008,04,21,12,36,5.80
2008,04,21,12,37,5.80
2008,04,21,12,38,5.80
2008,04,21,12,39,5.90
2008,04,21,12,40,5.90
2008,04,21,12,41,6.00
2008,04,21,12,42,6.10
2008,04,21,12,43,6.30
2008,04,21,12,44,6.50
2008,04,21,12,45,6.80
2008,04,21,12,46,6.90
2008,04,21,12,47,6.90
2008,04,21,12,48,7.00
2008,04,21,12,49,6.80
2008,04,21,12,50,6.70
2008,04,21,12,51,6.40
2008,04,21,12,52,6.30
2008,04,21,12,53,6.20
2008,04,21,12,54,6.20
2008,04,21,12,55,6.20
2008,04,21,12,56,6.30
2008,04,21,12,57,6.40
2008,04,21,12,58,6.30
2008,04,21,12,59,6.30
2008,04,21,13,00,6.20
2008,04,21,13,01,6.10
2008,04,21,13,02,6.00
2008,04,21,13,03,6.00
2008,04,21,13,04,6.00
2008,04,21,13,05,6.00
2008,04,21,13,06,5.90
2008,04,21,13,07,5.80
2008,04,21,13,08,5.70
2008,04,21,13,09,5.70
2008,04,21,13,10,5.80
2008,04,21,13,11,5.90
2008,04,21,13,12,5.90
2008,04,21,13,13,5.70
2008,04,21,13,14,5.70
2008,04,21,13,15,5.70
2008,04,21,13,16,5.70
2008,04,21,13,17,5.70
2008,04,21,13,18,5.70
2008,04,21,13,19,5.80
2008,04,21,13,20,6.00
2008,04,21,13,21,6.10
2008,04,21,13,22,6.20
2008,04,21,13,23,6.10
2008,04,21,13,24,6.10
2008,04,21,13,25,6.10
2008,04,21,13,26,6.20
2008,04,21,13,27,6.20
2008,04,21,13,28,6.10
2008,04,21,13,29,6.00
2008,04,21,13,30,6.00
2008,04,21,13,31,5.90
2008,04,21,13,32,5.80
2008,04,21,13,33,5.80
2008,04,21,13,34,5.70
2008,04,21,13,35,5.70
2008,04,21,13,36,5.80
2008,04,21,13,37,5.90
2008,04,21,13,38,6.00
2008,04,21,13,39,5.90
2008,04,21,13,40,5.90
2008,04,21,13,41,6.00
2008,04,21,13,42,5.90
2008,04,21,13,43,5.80
2008,04,21,13,44,5.70
2008,04,21,13,45,5.70
2008,04,21,13,46,5.70
2008,04,21,13,47,5.70
2008,04,21,13,48,5.70
2008,04,21,13,49,5.60
2008,04,21,13,50,5.60
2008,04,21,13,51,5.60
2008,04,21,13,52,5.60
2008,04,21,13,53,5.70
2008,04,21,13,54,5.70
2008,04,21,13,55,5.70
2008,04,21,13,56,5.70
2008,04,21,13,57,5.70
2008,04,21,13,58,5.70
2008,04,21,13,59,5.80
2008,04,21,14,00,5.90
2008,04,21,14,01,6.00
2008,04,21,14,02,6.10
2008,04,21,14,03,6.20
2008,04,21,14,04,6.20
2008,04,21,14,05,6.20
2008,04,21,14,06,6.20
2008,04,21,14,07,6.20
2008,04,21,14,08,6.30
2008,04,21,14,09,6.30
2008,04,21,14,10,6.50
2008,04,21,14,11,6.60
2008,04,21,14,12,6.70
2008,04,21,14,13,6.80
2008,04,21,14,14,6.80
2008,04,21,14,15,6.90
2008,04,21,14,16,6.90
2008,04,21,14,17,7.00
2008,04,21,14,18,7.10
2008,04,21,14,19,7.20
2008,04,21,14,20,7.20
2008,04,21,14,21,7.30
2008,04,21,14,22,7.30
2008,04,21,14,23,7.30
2008,04,21,14,24,7.50
2008,04,21,14,25,7.60
2008,04,21,14,26,7.80
2008,04,21,14,27,7.80
2008,04,21,14,28,7.70
2008,04,21,14,29,7.70
2008,04,21,14,30,7.70
2008,04,21,14,31,7.70
2008,04,21,14,32,7.70
2008,04,21,14,33,7.60
2008,04,21,14,34,7.50
2008,04,21,14,35,7.50
2008,04,21,14,36,7.50
2008,04,21,14,37,7.50
2008,04,21,14,38,7.40
2008,04,21,14,39,7.40
2008,04,21,14,40,7.50
2008,04,21,14,41,7.60
2008,04,21,14,42,7.90
2008,04,21,14,43,8.00
2008,04,21,14,44,8.10
2008,04,21,14,45,8.00
2008,04,21,14,46,8.00
2008,04,21,14,47,7.90
2008,04,21,14,48,7.80
2008,04,21,14,49,7.80
2008,04,21,14,50,7.80
2008,04,21,14,51,7.80
2008,04,21,14,52,7.80
2008,04,21,14,53,7.90
2008,04,21,14,54,8.00
2008,04,21,14,55,8.00
2008,04,21,14,56,8.10
2008,04,21,14,57,8.20
2008,04,21,14,58,8.20
2008,04,21,14,59,8.20
2008,04,21,15,00,8.20
2008,04,21,15,01,8.20
2008,04,21,15,02,8.20
2008,04,21,15,03,8.30
2008,04,21,15,04,8.40
2008,04,21,15,05,8.40
2008,04,21,15,06,8.40
2008,04,21,15,07,8.30
2008,04,21,15,08,8.20
2008,04,21,15,09,8.00
2008,04,21,15,10,7.90
2008,04,21,15,11,8.00
2008,04,21,15,12,8.00
2008,04,21,15,13,8.00
2008,04,21,15,14,8.00
2008,04,21,15,15,8.10
2008,04,21,15,16,8.20
2008,04,21,15,17,8.40
2008,04,21,15,18,8.40
2008,04,21,15,19,8.50
2008,04,21,15,20,8.60
2008,04,21,15,21,8.70
2008,04,21,15,22,8.80
2008,04,21,15,23,8.90
2008,04,21,15,24,9.00
2008,04,21,15,25,9.20
2008,04,21,15,26,9.20
2008,04,21,15,27,9.20
2008,04,21,15,28,9.00
2008,04,21,15,29,8.80
2008,04,21,15,30,8.70
2008,04,21,15,31,8.60
2008,04,21,15,32,8.60
2008,04,21,15,33,8.60
2008,04,21,15,34,8.60
2008,04,21,15,35,8.60
2008,04,21,15,36,8.70
2008,04,21,15,37,8.80
2008,04,21,15,38,8.90
2008,04,21,15,39,8.90
2008,04,21,15,40,8.80
2008,04,21,15,41,8.70
2008,04,21,15,42,8.60
2008,04,21,15,43,8.40
2008,04,21,15,44,8.30
2008,04,21,15,45,8.20
2008,04,21,15,46,8.10
2008,04,21,15,47,8.10
2008,04,21,15,48,8.10
2008,04,21,15,49,8.00
2008,04,21,15,50,8.00
2008,04,21,15,51,7.90
2008,04,21,15,52,7.90
2008,04,21,15,53,7.80
2008,04,21,15,54,7.80
2008,04,21,15,55,7.70
2008,04,21,15,56,7.70
2008,04,21,15,57,7.70
2008,04,21,15,58,7.70
2008,04,21,15,59,7.60
2008,04,21,16,00,7.60
2008,04,21,16,01,7.60
2008,04,21,16,02,7.70
2008,04,21,16,03,7.70
2008,04,21,16,04,7.70
2008,04,21,16,05,7.70
2008,04,21,16,06,7.70
2008,04,21,16,07,7.80
2008,04,21,16,08,7.80
2008,04,21,16,09,7.80
2008,04,21,16,10,7.80
2008,04,21,16,11,7.70
2008,04,21,16,12,7.60
2008,04,21,16,13,7.50
2008,04,21,16,14,7.50
2008,04,21,16,15,7.30
2008,04,21,16,16,7.30
2008,04,21,16,17,7.30
2008,04,21,16,18,7.30
2008,04,21,16,19,7.30
2008,04,21,16,20,7.30
2008,04,21,16,21,7.20
2008,04,21,16,22,7.20
2008,04,21,16,23,7.00
2008,04,21,16,24,6.90
2008,04,21,16,25,6.80
2008,04,21,16,26,6.80
2008,04,21,16,27,6.70
2008,04,21,16,28,6.60
2008,04,21,16,29,6.50
2008,04,21,16,30,6.40
2008,04,21,16,31,6.40
2008,04,21,16,32,6.40
2008,04,21,16,33,6.30
2008,04,21,16,34,6.20
2008,04,21,16,35,6.10
2008,04,21,16,36,6.00
2008,04,21,16,37,5.90
2008,04,21,16,38,5.90
2008,04,21,16,39,5.80
2008,04,21,16,40,5.80
2008,04,21,16,41,5.70
2008,04,21,16,42,5.70
2008,04,21,16,43,5.70
2008,04,21,16,44,5.70
2008,04,21,16,45,5.70
2008,04,21,16,46,5.70
2008,04,21,16,47,5.70
2008,04,21,16,48,5.70
2008,04,21,16,49,5.70
2008,04,21,16,50,5.70
2008,04,21,16,51,5.70
2008,04,21,16,52,5.70
2008,04,21,16,53,5.70
2008,04,21,16,54,5.70
2008,04,21,16,55,5.70
2008,04,21,16,56,5.70
2008,04,21,16,57,5.70
2008,04,21,16,58,5.70
2008,04,21,16,59,5.80
2008,04,21,17,00,5.70
2008,04,21,17,01,5.70
2008,04,21,17,02,5.70
2008,04,21,17,03,5.70
2008,04,21,17,04,5.70
2008,04,21,17,05,5.70
2008,04,21,17,06,5.60
2008,04,21,17,07,5.60
2008,04,21,17,08,5.60
2008,04,21,17,09,5.70
2008,04,21,17,10,5.70
2008,04,21,17,11,5.70
2008,04,21,17,12,5.70
2008,04,21,17,13,5.70
2008,04,21,17,14,5.70
2008,04,21,17,15,5.70
2008,04,21,17,16,5.80
2008,04,21,17,17,5.90
2008,04,21,17,18,5.90
2008,04,21,17,19,6.00
2008,04,21,17,20,6.00
2008,04,21,17,21,6.00
2008,04,21,17,22,6.00
2008,04,21,17,23,5.90
2008,04,21,17,24,5.90
2008,04,21,17,25,6.00
2008,04,21,17,26,6.00
2008,04,21,17,27,6.10
2008,04,21,17,28,6.10
2008,04,21,17,29,6.20
2008,04,21,17,30,6.20
2008,04,21,17,31,6.20
2008,04,21,17,32,6.20
2008,04,21,17,33,6.20
2008,04,21,17,34,6.20
2008,04,21,17,35,6.20
2008,04,21,17,36,6.20
2008,04,21,17,37,6.20
2008,04,21,17,38,6.30
2008,04,21,17,39,6.30
2008,04,21,17,40,6.30
2008,04,21,17,41,6.30
2008,04,21,17,42,6.20
2008,04,21,17,43,6.20
2008,04,21,17,44,6.10
2008,04,21,17,45,6.10
2008,04,21,17,46,6.10
2008,04,21,17,47,6.20
2008,04,21,17,48,6.20
2008,04,21,17,49,6.30
2008,04,21,17,50,6.40
2008,04,21,17,51,6.40
2008,04,21,17,52,6.60
2008,04,21,17,53,6.60
2008,04,21,17,54,6.70
2008,04,21,17,55,6.80
2008,04,21,17,56,6.80
2008,04,21,17,57,6.80
2008,04,21,17,58,6.90
2008,04,21,17,59,7.00
2008,04,21,18,00,7.10
2008,04,21,18,01,7.10
2008,04,21,18,02,7.10
2008,04,21,18,03,7.10
2008,04,21,18,04,7.10
2008,04,21,18,05,7.00
2008,04,21,18,06,7.00